Tracking 20232 objects as of 21-Jan-2020
HD Live streaming from Space Station
objects crossing your sky now

SL-8 R/B

Track SL-8 R/B now!
10-day predictions


NORAD ID: 6993
Int'l Code: 1973-104J
Perigee: 1,482.1 km
Apogee: 1,628.1 km
Inclination: 74.0 °
Period: 117.0 minutes
Semi major axis: 7926 km
RCS: 6.4131 m2 (large)
Launch date: December 19, 1973
Source: Commonwealth of Independent States (former USSR) (CIS)
Launch site: PLESETSK MISSILE AND SPACE COMPLEX (PKMTR)

Note: This is a ROCKET BODY
aabbcc
Your satellite tracking list
Your tracking list is empty




NASA's NSSDC Master Catalog

Two Line Element Set (TLE):
1  6993U 73104J   20020.93084384 -.00000026 +00000-0 -87439-4 0  9990
2  6993 074.0349 294.7326 0092059 354.1088 075.3063 12.30304299069779
Source of the keplerian elements: AFSPC